Theta_e
314 314 315 318 321 323 321 319 313 315 315 307 310 312 314 318 319 318 320 322 325 334 336 335 334 325 330 340 340 340 344 347 345 337 339 353 353 352 355 352 351 348 347 346 346 344 340 337 335 336 336 338 339 340 340 340 340 340 340 340 340 338 338 335 336 337 335 333 336 338 338 337 337 338 338 338 339 341 341 342 343 344 344 344 344 344 344 343 342 342 341 340 337 334 330 327 326
318 317 318 320 323 323 320 319 312 312 311 306 310 314 315 319 318 318 324 328 333 339 340 338 334 331 335 341 339 338 347 348 349 348 350 353 351 354 355 352 351 348 348 346 346 345 343 338 334 335 335 336 337 338 340 341 341 341 340 339 337 336 338 336 336 335 331 333 338 338 338 337 337 338 338 339 341 343 343 343 344 344 344 344 344 344 344 343 342 342 341 340 338 335 331 327 328
320 320 321 322 322 319 319 318 311 308 308 306 310 316 317 317 319 322 326 327 331 337 338 337 335 337 339 338 338 341 347 347 348 348 349 352 352 354 354 352 350 349 348 346 346 344 344 340 333 334 333 333 334 335 338 339 339 340 338 335 333 334 337 335 333 332 332 337 339 338 338 337 338 338 339 341 342 343 344 343 344 344 344 344 344 344 343 343 342 342 340 339 338 336 332 329 330
320 322 323 322 320 317 318 317 313 309 307 306 308 316 317 316 320 321 322 321 325 332 335 338 338 340 342 341 341 345 349 348 349 348 350 352 352 353 354 352 350 349 347 347 346 344 345 340 333 333 331 331 330 331 333 334 335 334 332 329 329 331 335 335 334 334 337 339 338 338 338 338 339 339 340 341 343 343 343 343 343 343 344 344 344 343 342 342 342 340 337 334 333 333 331 331 331
320 323 323 323 320 317 318 317 315 310 308 309 309 315 317 317 321 320 321 321 324 331 332 336 339 338 343 347 347 349 349 348 350 349 351 351 353 353 353 352 350 349 347 347 345 345 345 338 332 332 330 329 328 327 327 328 327 326 326 325 327 331 333 333 336 336 337 338 338 338 338 338 339 339 341 341 343 344 344 344 343 343 343 343 343 342 342 342 341 337 333 331 331 331 331 331 331
321 322 322 321 319 318 316 312 311 310 312 315 312 315 318 318 320 320 320 320 325 331 330 332 337 337 343 348 349 349 349 349 349 349 351 351 353 353 353 352 350 349 347 346 345 346 344 336 332 331 329 328 326 325 324 324 323 323 324 325 330 334 332 333 338 338 336 337 337 338 338 338 338 339 340 341 342 343 343 343 343 343 342 342 341 341 341 339 336 332 330 330 331 331 330 330 330
321 320 319 317 317 317 315 311 310 311 315 317 315 317 318 319 319 320 320 321 325 330 328 330 337 337 343 348 348 348 347 349 348 349 351 352 353 353 353 352 350 349 347 347 346 346 343 336 331 331 329 327 326 324 323 322 322 323 325 328 333 334 334 336 339 339 338 337 337 338 338 337 338 338 339 340 340 341 342 342 342 341 341 341 341 340 339 334 331 330 330 330 330 330 330 329 330
321 321 319 316 317 316 314 313 314 315 317 317 316 317 318 319 319 320 320 320 322 327 329 331 337 337 342 347 350 348 347 349 348 350 351 352 353 353 353 352 350 349 347 347 347 345 341 336 332 331 329 327 325 324 324 323 323 324 325 332 335 333 337 339 338 338 338 338 338 338 338 338 338 338 339 339 339 340 341 341 340 340 340 340 340 340 335 330 329 330 330 330 330 330 330 329 328
319 319 318 315 317 315 312 313 315 317 317 317 316 317 318 319 319 320 320 320 320 323 329 332 336 338 340 347 351 348 347 348 348 350 352 352 353 352 352 351 350 349 347 347 347 345 342 337 333 332 329 327 326 325 325 325 326 324 327 336 338 334 337 339 337 337 337 338 339 338 338 338 338 338 338 339 339 339 339 339 339 339 339 340 340 338 332 329 329 330 331 330 331 331 331 330 328
317 316 317 315 315 312 309 311 314 316 316 316 316 317 318 318 319 320 319 321 320 320 331 336 338 339 338 346 350 348 347 347 349 351 352 353 352 352 352 351 350 349 347 348 347 345 343 339 335 333 331 329 328 328 329 330 330 328 331 338 338 335 336 337 336 337 338 339 339 338 338 337 337 338 338 338 338 338 338 339 338 338 339 338 338 335 331 330 329 330 332 331 331 332 331 329 327
316 315 316 313 312 308 308 310 312 315 316 315 316 317 318 318 318 319 318 320 321 323 337 340 337 337 338 349 350 347 347 348 350 351 352 353 352 352 351 350 350 348 348 348 347 345 344 341 337 335 332 332 332 330 331 332 333 333 334 335 337 337 336 335 336 338 339 339 338 338 337 336 337 337 337 337 337 338 338 338 337 338 338 337 336 334 332 330 329 331 332 331 331 331 331 329 327
316 315 314 311 310 309 310 311 312 315 315 316 317 317 317 319 318 318 318 319 322 329 338 339 337 335 338 349 349 346 347 348 350 351 352 353 352 352 351 350 349 348 348 348 347 346 344 342 340 337 334 335 334 332 331 332 334 336 335 332 334 337 336 334 336 338 338 338 339 337 335 335 336 336 336 337 337 338 338 337 337 338 337 337 336 333 332 330 329 332 333 332 331 331 331 329 326
316 316 314 311 312 313 312 311 312 314 314 317 317 318 320 321 319 318 319 320 326 332 336 339 339 336 340 350 349 346 347 349 350 351 352 352 351 351 350 350 349 349 349 348 347 346 345 344 343 340 337 337 336 333 331 333 334 336 335 332 332 335 335 333 334 336 337 337 338 335 333 333 335 335 336 337 338 338 338 337 337 338 338 338 336 332 331 330 328 332 333 333 332 332 331 329 327
315 315 314 312 315 314 312 311 312 312 313 318 317 319 325 326 322 319 321 323 331 339 341 343 340 337 342 349 349 346 347 348 349 350 351 351 351 350 350 349 348 349 349 348 347 347 346 345 344 343 339 339 339 336 334 334 335 335 334 332 332 332 334 332 333 335 335 335 335 334 331 332 333 334 335 336 336 337 337 335 336 337 338 337 335 332 331 330 329 332 334 333 332 332 331 330 327
315 315 315 313 314 312 312 312 312 312 314 318 317 319 328 332 329 327 330 332 340 345 344 344 344 342 341 346 349 347 347 348 349 350 350 350 350 350 349 349 348 349 348 348 347 346 346 345 345 344 342 341 341 340 339 337 334 332 332 333 331 330 331 333 333 333 333 333 334 333 331 334 336 335 335 334 333 334 333 333 334 335 336 336 333 331 331 329 329 333 334 333 333 332 332 330 328
317 315 315 314 312 311 312 313 314 315 315 318 317 319 329 334 335 338 340 340 344 345 344 344 345 347 347 348 349 347 347 348 349 349 350 350 350 350 349 348 348 348 348 348 347 347 346 346 346 345 344 343 342 342 341 340 334 330 333 334 331 331 333 334 335 334 333 333 333 334 333 336 338 337 337 334 332 330 330 332 333 332 333 333 331 330 330 328 329 332 334 334 333 332 332 330 329
316 315 315 313 311 311 312 314 315 314 316 319 318 319 327 335 339 341 341 341 343 343 346 346 346 346 346 347 347 347 348 348 349 349 349 349 349 349 349 348 348 348 348 348 348 347 347 346 346 346 345 343 343 342 341 342 337 333 337 337 334 334 334 335 336 336 335 334 333 334 336 338 338 337 338 337 333 330 328 329 330 329 329 330 329 328 328 327 330 333 334 334 333 333 332 331 329
315 315 314 312 312 313 313 316 317 315 318 318 318 319 323 334 338 339 340 342 343 343 346 345 346 346 344 346 346 347 348 348 349 349 349 349 349 349 349 348 347 347 347 348 347 347 347 346 346 346 346 344 344 343 342 343 339 338 340 339 337 337 336 336 337 338 338 337 336 336 338 340 340 339 339 339 336 334 331 329 330 329 327 328 327 326 326 328 330 333 334 334 334 332 332 333 331
315 316 315 313 314 314 315 317 317 317 317 316 318 318 321 332 337 338 338 339 341 341 344 346 347 345 344 346 346 347 348 349 349 349 349 348 348 348 349 348 347 347 347 347 347 347 347 345 345 345 345 345 344 344 344 343 341 341 342 341 340 339 338 338 339 340 340 340 338 338 340 340 340 340 339 339 338 337 334 330 331 329 325 326 325 324 326 330 332 333 334 334 333 333 335 336 335
315 317 315 314 315 315 315 316 317 317 317 316 317 317 320 329 333 335 335 334 337 336 338 345 349 347 344 344 346 347 348 349 349 349 349 348 347 347 348 348 347 347 347 347 347 347 346 345 345 345 344 345 345 344 345 344 343 343 343 342 341 340 340 340 340 341 341 341 340 340 341 340 340 341 340 338 337 338 335 332 332 330 326 323 323 325 328 330 333 334 333 333 334 335 337 337 336
315 316 314 315 315 314 314 315 317 316 316 316 316 317 317 321 324 330 333 330 332 332 333 339 346 349 345 343 346 347 347 349 349 348 347 346 347 347 347 347 347 347 347 347 347 347 346 345 345 345 345 345 345 345 345 345 344 344 344 343 343 342 341 341 342 342 342 343 342 341 341 340 339 340 341 339 338 338 336 335 334 333 332 327 325 330 332 332 335 335 335 334 336 337 338 337 337
316 316 313 316 315 313 315 316 316 316 316 316 316 316 315 317 319 326 332 329 331 335 336 338 344 346 344 343 345 347 347 348 348 348 347 345 347 347 347 347 347 347 346 346 346 346 346 346 345 345 345 345 345 345 345 345 344 344 344 344 344 343 343 342 342 343 344 344 343 342 341 341 340 339 340 340 339 338 337 336 336 335 336 332 330 334 335 334 336 336 336 337 337 338 337 337 337
315 315 314 315 315 314 316 316 316 316 316 315 315 315 315 316 318 326 332 331 335 339 338 341 344 345 345 345 345 346 346 347 348 347 346 346 347 348 347 347 346 346 346 346 346 346 346 346 345 345 345 344 345 345 345 345 344 344 344 344 343 344 344 343 343 343 344 344 344 342 342 342 340 339 340 340 339 339 337 336 336 335 335 334 333 335 335 335 336 335 337 337 337 337 337 337 336
314 314 316 315 315 315 315 316 316 316 315 315 315 314 315 315 318 325 330 333 337 340 341 343 345 346 347 345 344 345 346 348 348 347 347 346 346 347 346 346 346 345 346 346 346 346 346 346 345 345 345 344 344 344 345 345 345 345 344 344 343 343 344 343 343 344 344 344 343 343 342 342 341 339 339 340 340 338 337 337 336 335 334 334 334 334 335 336 335 334 337 337 337 337 336 336 335
313 313 315 315 315 315 315 316 315 315 315 315 314 314 315 315 317 320 325 335 340 341 343 343 344 345 345 344 344 345 347 348 348 347 347 346 345 346 345 345 345 345 345 346 346 345 346 346 345 345 345 345 345 344 344 345 345 345 345 344 343 343 343 343 343 343 343 343 343 343 342 342 341 339 339 339 339 338 337 337 336 336 335 334 333 333 334 335 335 335 336 337 337 337 336 336 335
313 313 314 314 315 315 315 315 315 316 315 315 314 314 315 314 316 317 323 338 341 342 344 343 343 344 344 343 343 345 346 348 348 347 347 346 345 345 345 345 345 344 344 345 344 345 345 345 345 345 345 345 344 344 344 344 345 345 345 344 344 343 343 343 343 342 342 342 343 342 342 342 341 339 339 339 338 338 338 337 336 336 335 334 334 333 333 335 335 335 336 336 336 336 336 336 335
315 314 314 315 315 315 315 315 315 316 315 315 315 315 315 314 315 316 324 338 341 342 345 344 344 345 344 343 343 345 346 347 348 347 346 346 345 345 345 345 345 345 344 344 344 344 345 345 345 345 345 345 345 345 344 345 345 345 344 344 344 343 343 343 342 341 341 341 342 342 342 342 341 340 339 339 338 338 338 337 337 336 335 335 334 334 334 334 335 334 335 336 336 336 336 336 335
315 314 314 315 315 315 315 315 315 315 315 315 314 315 315 313 315 317 328 338 341 343 345 345 345 345 344 343 342 344 346 347 346 346 346 345 345 345 344 344 344 344 344 343 343 343 344 344 344 345 345 344 344 345 344 344 344 345 344 343 343 343 343 342 341 341 341 340 341 341 341 342 341 341 341 340 338 338 338 337 337 336 335 335 334 334 334 334 335 335 335 336 336 336 337 336 336
314 314 315 314 315 315 314 315 315 315 315 315 314 314 314 315 315 320 333 341 343 343 344 344 345 345 344 343 342 343 346 346 345 345 345 344 344 344 343 343 343 344 343 342 342 342 342 342 343 344 344 342 343 343 343 344 344 343 343 343 343 343 342 342 341 341 340 339 339 339 341 341 341 340 339 338 338 338 337 337 337 338 336 335 334 334 334 334 334 334 334 335 336 336 336 336 336
313 314 314 314 314 313 314 315 314 315 315 314 314 311 312 316 315 322 336 342 343 342 341 342 344 346 344 343 341 343 345 346 346 345 345 344 343 343 343 343 343 343 342 342 342 342 341 342 342 343 342 342 342 342 342 343 343 342 342 343 342 341 341 341 340 340 340 339 338 338 339 339 339 339 337 336 337 337 336 334 334 337 338 337 336 335 334 334 333 333 334 335 335 335 336 336 336
313 312 312 313 311 311 315 315 314 315 313 313 314 310 312 317 315 322 334 339 338 334 334 337 342 345 345 343 341 342 345 345 346 346 345 344 343 344 343 344 342 342 342 341 341 341 341 341 341 342 341 341 341 341 341 342 343 341 340 341 341 340 340 339 338 338 338 339 338 338 338 337 337 338 337 336 336 336 337 333 330 334 338 338 338 336 334 334 333 333 333 334 335 335 335 335 335
313 311 309 311 311 311 315 314 314 315 313 314 314 311 314 316 315 323 332 335 335 330 328 333 341 345 344 343 342 342 344 345 346 345 345 344 343 344 344 344 343 342 341 341 341 340 340 340 340 340 340 340 340 341 341 341 341 340 339 340 340 339 339 338 337 336 337 338 338 338 337 336 336 337 337 336 335 335 336 334 332 333 336 337 337 337 336 334 334 333 333 334 334 334 335 335 335
313 311 308 309 310 311 313 313 315 315 314 314 314 313 315 316 316 326 334 334 332 330 329 332 340 345 344 343 342 343 344 345 346 345 345 345 344 344 344 344 343 341 341 341 341 340 340 340 339 340 340 340 340 341 341 340 339 338 338 339 339 339 338 338 336 336 337 337 338 337 336 336 336 337 337 336 335 335 334 335 334 333 334 335 336 337 336 334 334 334 334 334 334 334 334 335 335
311 311 310 311 310 311 311 312 314 314 314 314 314 315 316 315 317 327 333 332 328 327 328 333 339 343 344 343 342 342 343 345 346 345 346 345 345 344 344 343 342 341 341 341 341 341 340 340 339 340 340 341 340 340 340 339 339 338 338 339 339 338 338 338 337 336 338 337 337 336 336 335 335 336 336 336 334 334 335 335 335 334 334 334 334 336 336 335 335 335 335 335 335 335 334 335 335
310 309 311 311 310 311 310 311 313 314 314 314 314 315 316 315 318 327 331 330 328 326 329 334 337 341 343 342 341 342 342 344 345 346 347 346 346 345 344 342 341 342 341 341 341 341 340 340 339 339 339 340 340 340 339 338 338 338 338 338 338 337 337 337 336 336 337 337 336 336 335 335 335 335 336 336 334 334 334 334 335 335 334 334 334 334 335 335 335 336 336 335 335 335 335 335 335
312 311 311 310 309 310 313 313 314 314 314 314 314 314 315 316 319 327 333 334 333 331 334 337 338 340 342 342 341 342 343 343 345 346 347 346 345 344 344 343 342 342 342 341 342 341 341 340 340 340 339 340 339 339 338 338 338 338 338 338 338 338 337 337 336 335 336 336 335 335 334 334 335 335 335 335 334 334 334 334 334 335 335 335 334 333 334 335 336 336 336 336 336 335 335 336 336
314 312 311 310 309 309 313 314 314 315 314 314 316 315 316 319 320 324 332 336 335 333 336 338 337 339 341 341 341 342 343 343 344 345 345 344 344 344 343 343 342 342 341 341 342 341 341 340 340 340 339 339 339 338 338 338 337 337 337 337 337 337 336 336 336 335 334 334 334 334 335 335 335 335 336 335 334 334 334 334 334 335 335 335 334 332 333 335 336 336 336 336 336 336 336 336 336
314 312 310 310 309 310 313 314 314 315 315 314 316 315 316 321 321 323 328 332 333 334 337 338 337 337 339 340 341 341 342 342 343 343 343 343 343 343 342 342 342 342 341 341 341 341 340 340 340 339 338 338 338 337 337 338 337 337 336 336 337 336 336 336 335 334 334 334 334 334 335 336 336 336 335 335 334 334 334 334 334 334 335 335 334 333 332 333 335 336 335 335 335 335 336 337 336
313 312 310 309 310 312 313 314 315 314 314 315 315 315 318 322 324 325 328 332 334 336 338 339 339 338 337 338 340 340 341 342 342 342 343 343 342 342 342 342 342 342 341 340 341 340 340 339 339 339 338 337 338 337 337 337 337 337 336 336 336 336 336 336 335 334 334 334 335 335 335 335 336 336 335 335 334 334 334 334 334 334 334 334 334 334 333 333 334 335 335 335 336 335 335 336 336
313 312 310 308 310 312 310 313 315 315 315 316 315 315 320 323 325 327 330 333 334 334 335 337 338 338 338 338 339 339 340 341 342 341 342 342 342 341 341 341 341 341 340 340 340 339 339 338 338 338 338 337 337 337 337 336 336 336 335 335 335 335 335 335 335 335 335 335 335 336 336 336 336 336 335 335 335 334 334 334 334 334 333 333 334 334 334 334 334 335 335 335 334 334 335 335 335
313 313 311 310 311 311 311 313 315 315 316 317 315 313 317 321 323 327 330 332 332 332 334 336 336 337 338 338 339 340 341 341 341 341 341 342 342 341 340 340 340 339 339 339 339 338 338 338 338 338 337 337 337 337 336 335 336 335 335 335 335 335 335 335 336 336 336 336 336 336 336 336 336 336 335 335 335 334 334 334 333 334 334 333 333 335 334 334 334 335 336 335 332 332 334 334 334
312 314 313 312 313 312 314 315 314 312 312 316 315 310 313 320 323 328 330 332 333 333 335 335 335 336 336 338 340 340 340 340 340 341 341 341 341 340 339 339 339 338 338 337 337 337 338 338 338 337 337 337 337 336 336 335 335 335 335 335 335 336 336 336 336 337 336 336 336 335 335 335 336 336 335 334 334 334 334 333 333 334 334 334 334 334 334 333 334 335 335 335 333 333 334 334 334
311 313 314 314 314 313 313 313 311 309 310 316 317 311 312 318 323 329 332 334 335 334 335 335 334 335 335 336 339 339 340 340 339 339 340 340 340 340 340 338 338 337 336 336 336 337 337 337 337 337 337 337 337 336 336 335 335 335 335 335 335 336 336 337 336 337 336 336 337 336 336 336 336 336 335 335 334 334 334 334 333 333 334 334 334 334 334 333 334 334 333 334 333 333 333 333 334
311 313 314 314 314 313 313 313 310 311 313 316 316 313 312 315 321 329 332 333 335 334 334 333 332 334 336 337 338 339 339 338 338 338 338 339 339 339 339 337 336 335 335 335 335 335 336 337 337 337 337 336 336 337 336 335 335 335 336 336 336 336 336 336 336 336 336 336 336 337 336 336 336 336 336 335 335 334 334 334 333 334 333 334 334 334 334 333 333 333 333 333 333 333 332 332 332
313 314 314 314 314 314 313 312 311 313 315 312 312 313 311 313 323 329 330 332 334 335 334 332 332 335 336 336 335 335 335 335 335 335 336 336 336 335 335 334 334 333 333 333 333 333 334 335 336 336 337 336 336 336 336 335 336 336 335 335 335 335 335 335 335 335 335 336 336 336 336 336 336 336 335 335 335 334 334 334 333 334 333 333 334 334 334 334 333 333 333 333 333 333 332 332 331
314 314 314 314 314 314 314 313 311 312 313 310 311 311 309 312 320 324 326 329 332 334 333 330 331 334 334 333 332 332 332 332 331 331 333 333 333 333 332 332 332 332 332 332 332 332 332 333 334 335 335 336 336 336 336 335 335 335 335 335 335 335 335 335 334 334 335 335 335 335 336 336 336 335 335 334 334 334 334 333 333 333 333 332 333 333 333 333 333 332 333 332 332 333 332 332 331
314 314 314 313 313 314 314 313 311 312 313 311 311 311 310 312 316 321 326 330 332 334 333 330 330 332 333 331 330 330 330 329 328 329 330 331 331 331 330 330 331 330 331 331 331 331 331 332 332 333 333 334 335 335 336 335 335 334 334 334 334 334 334 334 334 334 334 334 334 334 335 336 336 336 335 334 333 333 333 333 333 332 333 332 332 333 333 333 333 333 332 332 331 331 332 331 331
314 313 312 312 312 313 312 312 313 314 313 311 311 312 310 311 317 326 330 331 332 332 332 331 331 331 331 330 329 329 329 329 328 328 329 330 330 329 329 330 330 330 330 330 330 330 330 330 331 332 332 332 333 333 333 333 333 333 333 333 333 333 333 333 333 333 333 334 334 334 334 334 334 334 334 334 334 333 332 332 332 332 332 332 332 332 332 332 333 333 332 332 332 331 331 331 331
313 312 311 310 311 312 312 311 312 314 313 312 313 311 312 317 324 330 332 330 330 331 331 331 330 330 331 330 330 329 328 329 329 328 328 328 329 328 328 328 328 329 329 329 330 330 330 330 330 331 331 331 331 331 332 332 332 332 332 332 332 331 331 332 332 333 333 334 334 334 334 333 333 334 334 334 334 333 332 332 332 332 331 331 330 331 332 332 332 333 332 332 332 332 332 332 332
312 311 310 310 311 314 314 312 312 314 312 313 315 311 315 326 330 330 333 331 330 331 331 331 330 330 331 330 329 328 328 328 327 326 326 326 327 326 326 326 326 327 327 328 328 328 329 329 329 330 330 330 330 330 331 331 331 332 332 332 331 331 331 331 331 332 332 334 334 334 333 333 333 333 333 334 333 332 332 332 332 332 331 330 330 331 332 331 332 332 332 332 332 332 333 332 332
312 312 312 310 310 312 313 312 312 313 313 314 314 312 318 327 330 331 333 331 331 331 330 330 330 330 329 328 327 327 326 325 325 324 324 324 325 325 325 325 325 326 326 326 326 327 328 328 329 329 329 329 329 330 330 331 331 331 331 332 331 331 331 331 331 331 332 333 333 333 333 333 333 333 333 333 333 332 332 332 332 331 331 330 331 331 331 331 332 332 332 332 332 332 332 332 331
313 313 311 311 311 311 311 313 314 313 313 314 316 320 325 328 330 332 332 331 331 331 330 330 329 328 327 326 326 325 324 323 323 322 322 323 323 323 323 324 324 325 325 325 325 326 326 327 328 328 328 329 329 329 330 330 331 331 331 331 331 330 330 331 331 331 332 332 333 333 333 333 333 333 333 333 333 332 332 332 332 331 331 331 331 331 331 331 332 332 332 332 332 332 332 331 330
313 312 311 312 313 313 312 314 317 313 313 317 321 327 331 331 331 331 332 332 332 331 330 329 328 327 326 325 325 324 323 321 321 321 321 322 322 322 322 322 323 323 324 324 324 325 325 326 326 327 327 328 328 329 330 330 330 330 330 330 330 330 330 331 331 331 332 332 332 332 333 333 332 332 333 332 332 332 331 331 332 331 331 331 332 332 332 332 332 332 331 331 332 332 332 331 331
312 311 312 313 314 316 313 313 315 313 315 321 321 324 329 330 331 332 332 333 333 331 330 328 327 326 325 325 323 322 321 320 320 320 320 321 321 321 321 321 322 322 322 323 323 323 324 324 325 326 326 326 327 328 329 329 329 329 329 329 329 329 330 331 331 331 332 333 333 333 332 332 332 332 333 332 330 330 331 332 332 332 332 332 333 333 332 333 332 332 332 331 332 332 331 331 332
313 312 313 313 312 313 312 312 314 313 315 322 321 321 323 324 329 332 332 333 333 331 329 328 327 326 325 324 323 322 321 320 320 319 319 320 320 320 320 321 321 321 322 322 322 323 323 323 324 324 324 325 326 327 327 328 328 329 329 329 329 329 330 330 330 331 332 332 332 332 332 332 332 332 332 331 330 330 331 332 332 333 333 333 333 333 333 333 333 333 332 332 332 332 331 331 331
313 312 312 313 312 312 312 312 313 311 313 320 323 321 319 320 329 332 330 331 332 331 330 328 326 325 324 323 322 321 320 320 319 317 317 319 319 319 320 320 321 321 321 321 321 322 322 322 322 322 323 324 324 325 325 326 326 327 329 329 329 330 330 330 330 330 331 331 331 331 331 331 332 332 332 331 330 330 331 332 332 333 333 332 333 333 332 332 333 333 333 333 333 332 332 331 331
312 312 311 312 312 313 313 312 311 310 311 317 321 319 318 323 331 331 329 330 330 330 329 327 324 323 322 321 320 319 319 318 317 316 317 318 318 318 318 319 319 319 319 320 320 320 320 321 321 321 322 322 323 323 324 324 325 326 328 329 329 329 330 330 330 330 330 330 331 331 331 331 332 332 331 331 331 331 331 331 332 332 332 332 332 333 333 332 333 333 333 333 333 333 332 331 330
313 312 311 311 312 312 313 312 312 311 310 314 316 316 321 329 331 329 329 330 329 328 326 324 323 320 319 318 318 317 317 316 316 316 317 317 317 317 317 318 318 318 318 319 319 319 319 319 320 320 321 321 322 322 323 323 324 326 327 328 328 329 329 330 330 330 330 330 330 330 330 330 331 331 331 331 332 332 331 331 332 332 332 332 332 332 333 333 333 333 334 333 332 332 331 331 332
Wind_Speed
2 2 3 2 1 5 5 4 4 3 4 7 7 4 2 2 1 3 3 2 2 2 2 3 1 3 3 4 3 6 11 8 6 3 1 5 6 10 12 14 19 20 21 21 21 22 23 25 26 25 25 25 24 24 25 25 24 23 21 19 18 18 17 17 17 15 16 20 22 22 21 20 20 19 18 19 18 16 16 16 18 19 19 20 20 19 19 20 20 19 18 16 16 17 17 17 16
1 2 2 1 3 5 2 2 5 4 6 7 7 5 4 6 5 5 1 1 2 5 2 1 2 4 4 5 3 3 9 12 11 7 6 8 11 10 13 17 19 20 20 20 21 21 21 24 26 25 25 25 24 23 23 22 22 21 20 20 19 18 17 17 17 16 19 22 21 20 20 21 20 19 19 18 17 16 16 16 17 19 19 20 19 19 19 19 19 18 16 15 15 15 15 15 13
2 2 2 4 4 5 1 3 6 5 7 8 5 4 4 5 6 4 3 4 4 2 0 1 3 2 4 5 2 1 6 9 10 9 8 9 10 11 16 18 19 20 20 20 20 21 19 22 26 25 25 25 24 24 23 22 21 21 20 20 19 18 17 17 17 18 20 19 18 18 20 22 21 20 19 18 17 16 16 16 17 19 19 19 19 18 18 18 17 16 15 14 13 13 13 13 12
4 2 3 5 4 4 4 5 5 6 7 7 4 5 5 6 6 5 3 4 4 1 1 1 3 1 4 2 2 4 8 7 9 7 7 7 9 14 18 19 19 18 19 19 20 20 19 22 26 25 25 25 24 24 23 23 22 21 21 21 19 18 17 17 18 18 18 18 18 19 21 22 21 20 19 18 16 16 16 16 17 18 18 18 18 18 17 16 14 14 14 13 12 12 11 11 11
3 3 3 5 4 2 3 4 4 7 6 5 2 5 4 6 7 4 3 4 3 2 2 3 1 4 1 5 4 2 6 6 9 8 8 8 10 16 18 19 18 18 19 19 19 19 19 23 25 24 25 24 24 24 24 23 22 22 21 20 19 18 18 19 19 18 18 18 19 20 21 22 22 20 19 18 16 16 17 16 17 18 17 17 18 17 16 13 13 14 13 12 12 12 11 11 11
4 4 4 5 3 1 3 5 5 7 6 4 2 4 5 5 5 3 3 3 2 2 3 4 2 3 3 7 7 6 5 1 6 7 8 11 12 16 18 18 18 18 19 19 19 18 20 24 25 24 24 24 24 23 23 23 22 21 20 19 19 18 18 20 20 18 18 18 18 18 19 23 23 20 18 18 17 17 17 17 17 17 17 16 16 15 13 13 14 14 12 13 13 12 12 11 11
5 5 4 5 2 2 6 6 6 6 2 2 3 3 5 3 3 4 3 1 1 2 5 3 3 2 4 6 6 9 7 4 3 4 8 13 15 16 17 17 18 19 18 18 18 18 21 24 24 23 23 23 23 23 22 22 21 20 19 19 18 19 19 20 19 18 17 16 17 17 18 23 23 19 18 18 17 16 17 17 16 15 15 14 13 12 12 14 15 13 12 13 14 13 12 11 12
6 4 2 4 4 4 6 6 5 4 1 1 3 1 1 3 4 5 4 2 2 2 6 5 5 5 4 4 4 8 8 8 5 7 12 15 15 15 16 17 19 19 18 18 19 20 21 23 24 22 22 23 22 22 21 20 20 19 19 19 18 19 19 20 20 19 18 16 16 17 18 22 23 20 18 18 18 16 16 16 15 13 12 12 11 10 12 15 13 13 13 14 13 12 11 12 12
7 4 2 5 5 4 6 6 5 5 3 1 2 2 4 7 6 6 6 4 2 3 7 8 7 5 7 6 6 9 7 9 6 10 14 16 15 14 16 18 19 19 18 18 19 20 19 22 23 22 22 22 21 20 20 19 19 19 19 19 18 18 19 20 20 19 19 18 17 16 16 21 23 21 19 18 17 17 16 15 14 13 12 11 10 10 13 14 12 13 13 13 12 11 11 11 12
6 4 3 4 5 5 6 6 4 3 4 3 2 3 5 7 7 6 8 5 3 5 6 7 6 4 8 8 7 6 5 6 8 12 14 15 15 14 16 18 19 19 19 19 20 20 19 21 22 21 21 20 20 20 19 19 18 19 19 20 19 19 20 21 20 20 20 19 18 17 16 18 21 22 21 18 16 16 16 15 15 14 12 12 10 11 13 12 11 13 13 13 11 10 11 11 12
5 3 3 4 5 6 5 4 4 3 2 2 2 2 3 5 7 6 8 5 4 6 7 7 7 6 8 7 6 5 5 6 9 12 14 14 14 14 16 18 18 18 19 20 20 20 19 19 19 20 20 19 19 19 20 20 19 19 20 21 21 20 20 21 21 21 21 20 18 16 16 17 17 21 21 18 16 15 15 15 15 14 14 13 11 11 12 11 11 12 12 12 10 10 10 11 11
5 4 4 5 6 5 3 3 3 2 2 3 2 2 2 5 7 6 8 7 6 7 9 8 3 5 8 7 5 6 7 7 10 13 14 14 14 15 15 17 17 17 19 19 19 20 20 19 18 18 19 19 19 19 20 20 19 19 19 20 21 21 19 20 22 21 21 21 18 16 16 16 15 18 20 18 16 15 15 15 14 14 14 13 13 13 12 9 10 10 11 11 10 9 10 11 11
5 3 5 5 4 3 2 3 2 2 3 3 2 4 3 5 7 5 6 7 8 9 9 5 1 3 5 8 6 7 7 8 11 13 15 15 15 15 14 16 17 18 18 17 18 20 20 19 17 17 18 19 18 19 20 19 19 19 19 19 20 21 20 20 21 21 22 21 19 17 16 16 15 16 18 18 17 16 15 16 15 14 13 13 14 14 11 9 9 9 9 10 9 9 9 11 11
5 3 5 4 2 3 4 3 2 4 3 5 4 5 2 3 4 4 5 9 8 5 7 3 1 5 5 7 6 6 7 10 12 14 15 15 15 15 14 15 16 17 17 16 17 19 19 18 18 18 18 18 17 17 18 18 19 18 18 18 19 20 20 19 20 21 21 20 18 17 17 17 16 15 15 16 17 16 15 16 16 15 14 14 14 14 12 9 9 9 8 9 10 9 9 10 11
4 2 4 4 3 4 5 3 2 4 3 6 5 5 1 1 2 4 4 6 7 5 5 4 3 2 2 3 5 8 11 13 14 15 16 15 15 14 14 15 16 16 16 15 16 17 18 17 18 18 18 18 17 16 16 17 18 18 17 17 18 19 19 19 19 20 20 19 18 17 17 16 15 14 12 13 15 15 14 14 14 15 14 14 15 15 13 10 10 9 8 9 10 10 9 9 11
4 3 4 5 4 4 5 4 3 4 3 6 5 5 2 4 1 3 2 2 6 5 3 4 5 3 5 6 9 14 16 16 16 17 17 16 16 15 14 15 15 15 15 15 15 16 17 17 18 18 18 18 18 17 16 16 17 17 17 16 17 19 20 19 19 19 18 18 16 17 17 15 13 11 10 10 12 13 13 12 13 15 14 14 14 15 14 12 11 10 8 9 11 11 9 9 10
3 4 6 4 5 4 4 7 5 2 5 6 6 6 1 7 2 0 1 2 6 7 3 7 8 7 8 9 12 17 18 18 18 18 18 16 16 15 14 14 15 15 15 15 15 16 16 16 17 17 18 18 18 17 17 16 17 17 16 15 17 18 19 18 18 17 16 16 15 16 15 13 12 10 10 9 9 10 11 12 12 14 14 14 15 15 15 14 12 11 10 10 11 12 10 9 9
5 5 6 5 5 4 3 5 2 2 4 6 7 7 3 5 5 2 4 4 6 7 6 8 9 10 9 11 13 17 18 18 19 18 17 16 15 14 13 14 14 15 16 15 15 16 16 16 17 17 18 19 18 18 17 16 16 17 16 15 16 16 16 16 16 15 15 15 15 15 14 13 13 11 11 10 8 9 10 11 11 12 13 14 15 16 16 16 14 12 11 11 12 13 11 9 8
7 5 5 6 4 2 2 1 3 3 4 6 6 7 5 1 4 3 6 7 9 8 7 8 8 9 9 12 13 15 17 17 17 16 16 15 14 14 13 13 14 15 16 16 16 16 15 16 17 18 19 19 18 17 16 16 17 17 16 16 16 15 15 15 16 15 15 16 15 15 14 13 13 13 13 12 9 9 9 10 10 11 13 14 16 16 16 16 15 13 12 12 14 13 11 9 8
7 5 6 5 2 2 2 0 2 4 6 6 7 7 4 3 1 3 6 8 9 9 9 8 7 9 10 12 13 14 15 16 15 14 14 14 13 13 13 12 13 14 15 16 16 16 16 17 17 18 18 18 17 15 15 16 17 16 16 16 16 17 16 16 16 15 15 16 14 14 12 11 12 13 14 13 11 9 9 9 9 9 11 14 17 17 16 16 15 14 13 14 15 12 10 9 8
5 6 7 1 1 2 3 2 1 4 6 6 8 7 3 3 3 4 5 9 9 7 7 4 7 13 13 12 13 14 14 14 14 14 13 13 13 12 13 12 12 13 14 15 16 17 17 17 16 17 17 17 16 15 14 15 15 15 14 14 15 16 16 15 16 14 13 14 13 12 11 11 11 12 13 13 12 11 10 10 9 9 10 13 16 15 15 15 14 14 14 15 14 11 9 9 8
4 8 9 3 1 4 3 3 2 4 5 7 7 6 5 5 3 3 6 7 4 3 4 3 7 14 14 13 13 13 13 13 13 13 13 12 12 12 12 12 11 12 13 14 15 17 17 16 15 16 17 16 16 15 14 14 14 13 12 12 12 13 14 14 14 13 12 13 12 11 10 11 11 11 12 12 12 12 12 11 11 10 10 12 15 13 13 15 14 13 14 14 12 10 9 9 8
6 8 9 7 6 5 2 2 1 4 6 7 7 7 6 5 2 1 5 0 8 7 4 5 10 14 15 14 13 12 11 12 12 13 13 13 12 12 13 12 11 12 13 13 15 16 15 14 14 14 15 16 15 13 12 12 12 11 10 11 10 11 12 12 11 11 11 12 11 11 10 11 11 11 12 13 13 12 12 12 12 11 11 11 13 13 14 14 13 14 13 12 11 11 10 9 9
9 7 7 8 8 7 5 3 2 4 7 7 7 7 6 4 0 1 4 2 8 6 6 9 13 14 14 13 11 11 11 11 12 12 12 12 11 12 12 11 10 11 11 12 12 12 12 11 11 11 12 12 11 11 10 9 9 8 8 10 10 9 10 10 10 10 10 11 11 10 10 10 10 10 11 12 13 12 12 12 12 12 12 12 13 13 14 14 14 13 13 12 12 11 10 10 9
12 9 6 7 6 6 6 4 4 4 5 5 5 6 4 2 2 1 4 5 6 6 8 11 13 13 12 11 11 10 10 11 12 11 11 11 11 11 10 10 9 10 10 11 11 9 9 9 9 9 9 9 9 9 9 8 8 8 8 9 9 10 10 10 9 9 10 10 11 11 10 9 9 9 10 11 12 12 12 12 13 12 12 12 12 12 13 14 13 13 13 13 12 11 11 10 9
10 13 8 7 7 6 5 5 6 5 4 4 4 5 1 1 1 3 5 6 6 6 8 11 12 12 11 10 10 10 10 10 11 12 11 10 10 10 9 8 9 9 8 8 8 7 7 8 9 9 9 9 9 9 9 9 9 9 8 8 9 10 10 9 9 9 9 10 10 11 11 10 9 9 9 10 10 11 12 12 13 12 13 12 12 12 12 13 13 13 13 13 12 12 11 10 9
5 12 10 8 8 6 6 6 6 5 5 5 6 5 3 2 4 5 6 5 6 8 9 10 11 11 11 10 9 9 9 10 11 11 10 10 10 10 9 7 8 7 6 6 7 7 8 9 9 8 8 9 9 9 9 8 8 8 8 8 8 9 9 9 10 10 9 9 10 11 11 11 10 10 10 9 10 11 12 12 12 12 13 12 12 11 11 12 13 13 13 13 12 11 11 10 9
3 8 9 10 9 8 8 8 7 6 5 4 5 5 4 5 5 4 8 7 7 9 10 10 10 10 11 11 9 7 8 9 10 10 10 9 8 9 9 8 8 7 7 7 7 6 7 7 7 7 7 8 8 7 7 8 8 8 9 9 9 9 9 10 11 10 9 9 10 11 11 11 11 11 10 9 9 10 11 11 11 12 13 13 13 12 11 11 12 13 13 12 11 11 10 10 9
5 6 7 9 9 9 11 10 8 7 4 3 5 6 7 9 6 6 8 7 8 9 10 10 10 10 11 10 8 6 8 10 10 9 9 8 7 8 9 9 8 7 6 6 6 5 5 6 6 6 7 8 7 7 8 8 9 10 10 10 10 10 9 9 9 9 9 10 11 11 11 11 13 13 12 11 9 9 10 10 10 10 12 13 14 14 12 11 11 12 13 13 12 11 10 10 9
7 8 7 6 7 9 12 11 8 7 4 4 7 7 9 11 9 9 8 7 9 10 10 11 9 9 10 9 8 7 7 8 8 8 9 8 7 8 8 8 7 6 5 5 6 5 5 6 6 6 7 8 8 9 10 10 11 11 11 9 9 10 9 8 9 9 10 13 13 12 13 14 14 14 15 14 10 9 11 12 12 11 11 12 14 15 15 13 12 13 14 13 12 11 10 10 9
8 9 7 6 6 8 12 11 10 10 5 6 10 6 7 12 11 10 8 7 9 10 11 11 9 9 9 9 8 7 7 7 7 8 9 8 6 6 6 6 6 5 5 5 7 6 6 6 6 6 7 9 9 10 11 11 11 11 11 10 10 11 11 10 11 10 11 14 13 12 14 15 15 15 16 16 13 12 11 13 15 13 11 12 13 15 16 15 13 13 14 14 13 12 11 11 10
8 8 7 7 6 8 12 10 12 10 6 8 12 6 6 11 11 10 8 7 7 9 12 11 9 9 9 9 8 7 7 7 8 8 8 8 6 5 5 5 6 6 5 5 6 6 5 6 6 6 7 8 9 10 10 10 10 11 12 12 12 12 12 13 12 12 12 12 12 12 13 14 14 15 16 17 16 14 13 12 14 14 13 13 13 13 15 16 15 14 14 14 14 14 13 11 10
8 8 8 8 9 8 10 10 11 8 6 11 12 7 5 10 10 9 8 7 7 8 11 11 9 9 9 8 8 7 7 7 8 8 8 7 6 5 4 4 5 6 5 4 5 4 5 5 6 6 7 8 8 8 8 10 11 12 12 11 11 12 13 13 12 12 12 11 12 13 12 11 12 15 16 16 15 14 13 12 11 13 14 14 12 12 14 16 15 14 13 14 15 14 14 12 11
8 8 7 8 12 8 9 11 10 9 8 11 13 9 4 10 8 8 7 7 8 9 11 11 8 8 7 7 8 8 7 6 6 8 8 6 6 5 4 4 5 5 5 4 4 4 4 5 5 6 7 7 8 8 8 9 10 11 11 10 10 11 12 13 11 11 11 12 13 12 11 9 9 13 15 16 16 15 15 14 12 12 14 15 13 13 14 15 14 13 13 14 14 14 14 13 12
9 10 7 7 11 10 10 10 11 12 10 11 14 9 6 11 8 7 7 7 8 9 9 8 8 8 7 7 7 7 7 6 5 7 7 6 6 5 5 6 6 6 6 5 5 5 5 5 4 4 5 5 6 7 7 8 9 10 10 10 10 11 12 13 12 12 12 13 13 11 10 9 8 10 13 16 18 17 17 17 16 15 15 15 14 13 14 14 13 12 12 13 13 13 13 12 12
11 11 8 8 10 10 9 9 9 12 11 12 13 12 9 10 8 6 5 5 6 7 7 5 6 7 6 7 7 7 7 6 5 7 7 6 6 5 6 6 6 6 6 6 6 5 5 5 4 3 4 4 4 6 7 7 8 9 10 10 11 11 12 12 12 12 12 12 12 11 10 9 8 9 11 13 17 19 18 17 17 18 18 16 15 15 15 13 12 13 14 14 13 12 12 12 12
11 11 10 9 10 10 9 8 7 7 10 12 13 14 10 8 8 5 3 4 5 6 7 5 6 6 6 6 7 8 7 6 6 7 8 6 5 5 6 6 6 6 5 5 5 5 5 5 4 3 2 2 4 6 6 6 7 8 7 8 11 12 12 11 12 13 12 12 13 11 10 9 9 9 9 10 15 18 19 17 17 19 20 19 19 18 16 13 12 14 15 14 14 13 12 11 12
10 10 10 9 10 10 10 8 7 4 7 10 13 13 7 8 7 4 2 5 5 4 4 4 5 6 6 6 7 8 7 6 7 7 7 6 5 5 6 6 6 6 5 4 3 3 3 3 3 2 1 3 4 5 6 7 7 7 6 7 9 10 11 11 11 12 12 12 13 11 10 10 10 10 9 9 12 15 18 19 18 20 20 21 22 20 18 16 13 14 16 15 15 15 13 12 13
9 8 9 9 9 9 9 7 6 4 5 7 13 11 6 8 6 6 3 3 2 2 1 0 2 4 6 6 7 7 6 6 7 6 6 6 6 5 6 6 6 5 5 3 2 2 2 2 1 1 1 3 4 5 5 6 6 6 6 6 7 8 9 10 11 10 11 11 12 11 10 11 11 10 10 9 10 13 16 17 17 19 20 21 23 21 19 17 15 15 17 17 16 15 13 13 14
9 9 8 8 10 9 8 8 7 4 2 3 12 10 5 7 6 7 5 3 3 3 4 4 2 1 3 5 5 5 6 6 6 6 6 6 6 6 5 6 6 6 5 3 2 0 1 0 1 1 1 3 4 5 4 5 5 5 6 6 6 6 8 10 10 10 10 11 11 11 11 11 11 11 10 10 10 12 14 15 15 17 19 21 23 22 20 20 17 16 18 18 17 15 13 13 13
10 10 9 8 13 10 5 9 9 5 1 3 10 9 5 7 7 6 6 4 4 4 4 5 5 3 3 5 5 4 4 4 6 6 5 5 6 6 5 6 6 6 5 4 2 2 2 2 2 2 1 2 4 5 4 5 5 5 5 5 5 6 8 9 9 9 9 10 10 11 12 12 11 11 12 11 11 12 14 15 15 15 17 19 22 22 22 22 19 17 17 18 19 17 14 13 13
9 11 11 7 12 12 6 12 11 6 6 8 11 8 6 8 8 7 6 6 6 5 5 5 6 5 5 6 5 4 4 3 4 6 5 5 5 6 6 5 6 5 5 4 3 3 4 4 4 2 2 3 4 5 5 5 5 5 5 5 6 6 8 8 7 7 8 8 10 11 12 13 12 12 13 13 13 13 14 16 17 17 17 17 20 21 22 22 20 19 20 19 21 20 16 14 14
8 12 12 6 7 10 8 11 11 7 6 9 11 9 5 9 8 8 7 8 9 7 7 7 7 6 5 6 5 5 6 6 5 6 5 5 5 5 5 5 6 6 6 4 4 4 5 5 4 3 2 4 4 5 5 5 6 6 6 8 9 9 9 8 6 7 8 9 10 10 11 12 12 12 13 14 14 14 14 16 17 19 19 19 19 21 22 24 23 21 21 22 23 22 19 17 16
6 12 15 10 7 9 10 10 10 6 4 7 11 10 5 7 9 9 9 9 10 9 8 8 8 8 8 7 6 6 8 7 6 5 5 5 5 5 6 8 8 8 6 5 5 5 5 5 5 4 4 4 4 4 5 6 7 7 8 8 9 10 11 10 9 9 9 9 10 10 10 11 11 12 13 13 15 15 16 18 18 19 20 21 21 21 23 23 22 21 21 22 22 21 20 18 17
5 12 15 11 9 9 9 9 8 5 3 6 11 11 7 7 9 9 10 10 10 9 9 10 9 9 9 8 8 9 9 8 7 6 7 8 8 8 8 9 8 7 6 6 5 5 5 5 5 5 5 5 4 4 5 7 8 8 9 9 9 10 10 10 10 10 9 9 10 11 11 11 11 12 13 13 15 16 18 18 18 19 20 22 21 21 22 21 21 21 21 22 21 19 20 19 18
6 11 11 8 7 8 7 8 7 5 6 8 12 13 9 6 10 9 10 10 8 9 9 9 9 9 9 8 8 9 9 8 8 8 9 9 8 8 9 9 9 8 7 7 7 7 6 5 5 5 5 6 5 6 6 8 8 8 9 9 10 11 10 10 10 11 10 10 11 11 11 11 11 11 11 12 14 16 17 18 18 19 20 21 21 20 20 20 21 20 20 22 22 19 19 20 19
7 10 10 8 7 6 5 6 6 6 8 10 14 17 12 6 9 8 7 6 5 7 9 9 9 9 9 8 8 8 8 7 7 8 9 9 9 9 10 10 10 10 9 9 9 9 8 7 6 6 6 6 6 7 7 7 6 7 8 8 9 9 9 10 11 12 11 11 12 11 10 10 10 10 10 11 13 15 17 18 18 18 18 20 21 20 20 20 21 19 19 20 21 20 19 19 19
8 10 10 9 8 6 6 6 6 7 8 9 13 16 13 8 7 7 7 7 6 7 8 9 8 8 8 8 8 8 7 7 7 7 8 9 10 11 12 12 12 11 11 11 11 10 9 8 7 6 6 6 6 7 8 8 8 7 7 7 8 8 9 11 11 12 12 11 12 11 11 12 12 10 9 9 12 15 17 18 18 18 18 19 20 20 20 21 21 19 19 18 17 18 19 17 18
10 10 10 10 9 7 8 8 8 8 6 7 12 14 10 3 7 9 9 9 7 8 9 9 9 8 8 8 9 8 8 9 9 9 9 9 11 12 13 13 13 13 13 12 12 11 9 8 8 7 7 7 7 7 8 9 9 9 9 9 9 10 11 12 12 13 13 12 12 12 12 13 13 11 9 8 10 13 16 18 19 19 19 20 21 20 19 20 20 19 18 17 15 15 16 17 18
12 11 11 11 9 9 10 9 9 9 5 6 9 12 9 5 8 10 11 10 9 10 10 10 10 10 10 10 10 10 10 10 9 9 9 10 12 13 13 13 13 12 12 12 11 11 9 9 9 8 8 7 7 8 8 8 9 9 9 10 10 11 12 12 14 14 13 13 13 13 12 12 12 11 10 9 9 11 14 17 19 19 19 19 20 20 18 18 19 18 17 15 14 13 14 17 18
12 10 10 10 8 9 9 8 11 12 8 7 8 9 7 6 8 9 10 10 10 10 10 10 11 11 11 11 11 11 11 10 9 10 10 11 13 13 13 12 12 11 11 11 11 10 10 10 10 9 9 8 8 9 8 8 9 9 9 10 11 13 13 14 14 14 14 15 15 15 13 12 12 11 11 9 8 10 13 16 18 18 18 18 18 19 19 18 18 17 16 15 15 14 15 17 18
9 9 10 10 10 9 6 3 4 6 8 8 6 3 3 5 8 9 9 10 10 11 12 12 12 11 11 11 10 10 9 9 9 10 10 12 14 13 13 12 11 11 11 11 10 10 11 11 10 10 9 9 10 9 9 8 8 9 10 10 11 12 14 15 15 15 16 16 16 15 14 12 11 11 11 9 8 10 12 14 16 17 19 20 19 20 19 18 18 17 16 15 15 15 14 15 17
7 9 10 6 6 7 6 3 3 3 7 6 4 4 6 6 7 9 11 12 11 11 12 12 11 12 11 10 9 9 9 9 9 9 10 12 14 14 13 12 11 11 10 10 10 10 10 10 10 10 10 10 10 10 9 9 9 10 10 10 10 12 13 15 17 17 16 15 15 15 14 13 11 11 11 10 10 11 11 13 15 16 18 19 19 19 18 18 18 18 17 16 16 15 13 14 16
7 10 11 5 2 4 7 6 4 7 9 5 5 8 10 8 7 10 12 13 13 12 12 12 11 11 11 10 9 9 9 9 9 10 10 12 13 13 12 11 11 10 9 10 10 9 9 9 9 10 10 11 11 11 10 9 9 10 10 10 10 11 13 15 16 15 14 15 15 15 15 13 12 11 11 10 12 13 12 12 13 15 17 18 18 17 18 18 17 16 16 17 18 17 16 17 17
8 9 11 8 5 6 8 8 8 10 8 6 8 11 10 9 9 13 15 14 14 13 12 12 11 11 11 10 9 9 9 8 9 9 9 10 11 12 11 10 10 10 9 9 9 9 9 9 9 10 11 12 11 11 11 10 10 10 10 11 10 11 12 14 15 14 14 16 16 15 14 13 12 11 11 9 10 13 14 13 13 14 16 17 17 17 18 18 16 15 16 17 17 17 18 18 17
9 9 10 9 7 7 8 7 7 10 8 7 10 10 8 7 9 15 19 16 15 14 12 11 11 11 10 8 8 8 8 8 8 8 7 9 10 11 11 10 10 10 10 10 9 9 10 10 10 11 11 12 12 11 11 10 10 10 11 11 10 10 11 13 13 12 13 15 15 14 13 12 11 10 9 8 7 10 12 12 13 14 16 17 16 17 17 17 17 16 17 16 15 17 18 17 16
9 10 12 10 7 5 8 7 5 7 9 8 9 9 6 4 6 14 18 16 15 14 13 12 11 11 9 8 8 7 8 8 8 7 8 9 10 10 10 10 10 10 10 10 10 10 10 11 11 11 12 12 13 12 11 11 11 10 11 12 11 11 11 11 11 10 11 12 11 12 12 11 11 10 9 8 6 6 8 10 13 14 15 16 16 16 16 16 17 16 15 15 14 15 17 16 15
12 9 11 12 9 8 9 8 5 6 7 7 8 9 5 3 3 11 15 14 15 15 14 13 12 11 10 9 9 8 8 7 7 8 8 9 10 10 10 10 10 10 11 11 11 11 11 11 12 12 12 13 13 12 11 11 11 11 12 12 11 11 11 11 10 8 8 8 8 8 9 10 10 10 9 7 7 6 6 8 12 12 12 14 15 16 16 17 16 14 13 15 15 15 15 14 13
Wind_Direction
155 156 154 150 249 257 237 232 249 201 237 256 249 253 156 128 58 232 211 189 228 75 4 298 249 248 244 319 341 50 31 16 20 6 70 81 132 139 132 131 139 141 141 142 144 149 151 155 157 155 154 152 149 146 146 147 148 146 144 141 139 137 134 133 129 126 132 135 130 125 124 127 128 126 127 124 122 124 126 124 119 116 116 114 114 114 112 110 109 106 105 105 109 110 107 104 98
179 158 149 186 233 250 231 206 260 223 227 251 243 235 112 120 181 210 147 40 19 55 30 331 175 217 267 307 296 125 57 40 46 64 83 116 129 129 136 137 143 142 140 142 142 145 147 155 159 159 158 156 152 147 143 142 142 140 140 140 139 135 131 132 130 128 133 133 126 124 127 130 129 128 125 123 123 121 118 118 119 119 118 115 115 114 113 111 109 108 108 107 107 106 106 105 98
187 179 195 212 216 244 245 208 251 247 237 256 244 170 130 162 168 130 63 25 28 42 108 109 158 186 252 222 204 108 73 56 66 87 106 130 128 129 139 139 143 141 139 141 142 144 146 156 161 161 160 159 157 152 146 141 140 138 139 140 138 135 130 131 130 127 131 131 129 130 131 132 131 130 128 126 124 120 118 119 121 120 119 117 116 116 115 114 112 113 113 109 104 102 101 98 94
168 198 222 227 215 222 226 224 243 255 247 258 255 120 154 186 134 93 60 17 7 254 179 206 169 124 286 209 94 63 80 70 62 84 119 119 119 131 138 138 142 141 141 141 143 144 146 158 162 162 162 161 160 157 152 148 145 142 142 142 141 138 134 133 129 127 131 132 133 135 135 134 134 132 130 129 125 122 121 120 121 120 119 118 117 116 116 114 115 116 113 106 102 98 94 91 90
180 205 226 248 248 227 233 243 243 245 250 267 281 101 154 157 112 69 37 3 336 237 212 258 163 126 258 32 15 39 80 83 73 75 111 111 122 134 138 141 144 144 144 142 143 143 148 158 161 162 163 162 161 159 156 154 151 148 147 146 142 139 138 134 129 130 132 133 136 137 137 138 136 134 132 132 130 126 125 123 121 119 119 118 117 117 117 119 119 117 111 105 102 97 95 92 91
193 193 204 245 270 314 248 238 232 232 246 282 310 97 141 129 83 20 357 341 333 271 225 257 317 148 148 67 41 46 37 58 94 74 109 132 137 136 138 143 147 144 142 143 142 142 148 158 161 161 161 161 161 159 158 155 153 151 149 147 142 139 137 132 129 130 130 134 137 136 138 141 139 136 135 138 138 131 128 127 122 121 120 119 119 121 125 125 121 116 109 107 104 97 94 95 96
205 195 189 218 207 228 243 237 240 234 211 281 300 86 141 143 16 334 326 298 166 211 215 237 273 210 126 110 86 67 42 31 94 80 113 139 138 135 139 144 145 140 141 142 139 141 150 158 159 159 159 160 160 159 158 156 154 152 148 144 141 140 135 130 132 133 132 134 136 137 141 145 144 142 142 144 146 141 134 131 127 124 122 120 119 122 127 125 119 112 109 108 102 95 93 96 99
215 223 202 227 211 204 241 243 246 250 113 45 290 338 222 280 313 297 294 252 174 191 202 202 234 225 128 134 107 88 62 53 85 101 122 141 136 136 141 143 141 138 140 140 137 142 152 156 157 158 158 158 158 158 157 156 154 151 148 142 141 142 137 136 138 136 135 134 136 137 142 151 150 148 149 150 151 151 147 140 134 129 125 124 122 124 127 122 114 108 108 106 102 97 95 97 99
207 226 223 237 236 212 236 241 236 252 243 253 257 249 273 282 286 280 270 241 207 228 204 186 221 221 137 128 98 105 73 57 97 116 131 140 135 140 142 142 140 137 139 137 135 140 149 155 157 158 158 158 158 158 156 155 154 152 148 142 143 143 140 142 142 138 136 135 138 137 143 155 155 154 154 152 152 155 156 150 145 140 134 131 131 135 129 119 110 106 106 105 106 103 98 97 99
202 223 235 234 242 229 230 231 224 237 232 245 259 253 267 273 273 265 256 239 201 210 182 171 214 205 138 127 105 106 65 69 110 119 133 136 134 140 138 140 139 138 139 135 134 137 146 156 158 157 158 158 157 155 153 152 152 151 148 145 145 145 144 145 143 140 140 141 143 143 146 154 159 161 159 155 154 157 161 157 150 147 146 142 142 142 130 118 108 104 105 110 113 106 100 98 98
208 201 244 240 232 236 233 225 217 210 173 222 237 237 270 282 276 259 246 231 207 193 160 174 198 179 148 116 99 89 75 102 117 121 131 132 133 134 135 139 139 140 139 135 134 137 144 152 155 156 157 155 153 153 152 152 151 150 149 149 148 148 150 149 146 145 146 147 149 152 152 154 158 161 160 159 157 159 163 163 156 153 154 150 146 144 132 119 108 103 106 113 115 108 101 96 97
229 183 212 238 235 236 242 249 234 229 197 211 182 86 317 284 263 242 225 205 196 185 169 186 185 174 167 120 105 104 98 112 116 125 129 129 130 130 133 137 140 141 137 134 134 138 142 148 151 155 156 153 153 153 153 153 152 152 152 152 151 153 156 153 151 151 151 153 157 158 156 157 157 158 157 154 154 157 162 166 163 158 157 153 150 145 135 124 109 104 107 114 118 111 101 95 95
240 202 215 236 249 247 248 259 237 237 207 167 56 12 313 259 243 234 216 190 184 177 163 172 178 207 159 109 118 121 114 119 123 129 128 129 128 127 131 136 140 139 137 137 139 141 143 147 148 153 157 154 154 154 154 155 155 155 153 153 155 158 159 155 154 156 157 160 162 161 160 159 158 162 158 153 157 161 166 170 167 161 159 156 154 146 138 132 118 108 107 116 122 114 103 96 94
236 225 242 238 236 251 246 247 198 204 174 103 40 353 294 242 257 255 219 181 167 149 122 101 271 208 150 123 144 136 130 129 130 129 125 127 125 128 133 136 138 137 140 143 144 144 145 148 146 152 155 153 154 154 156 158 158 158 157 157 159 162 161 158 158 161 164 166 167 165 162 155 154 162 163 161 165 169 173 173 168 164 164 162 158 150 145 142 127 115 113 122 127 120 108 97 93
235 221 247 248 232 227 219 228 190 200 133 79 32 353 264 172 270 227 223 183 130 90 121 98 347 245 154 143 146 136 139 135 133 127 122 124 124 127 130 132 134 138 144 145 148 148 147 148 147 151 152 154 155 154 158 162 163 163 164 162 161 164 164 165 164 165 168 170 171 167 161 152 150 161 165 166 172 176 174 171 170 168 170 169 161 156 154 149 137 125 122 130 132 126 115 102 94
234 225 231 244 233 210 191 184 180 197 106 75 38 357 207 126 155 207 355 321 116 111 165 94 40 19 36 59 107 130 139 135 133 129 125 125 124 128 130 132 134 140 146 146 151 150 148 149 149 152 153 157 157 157 159 163 168 168 168 166 164 165 166 169 168 168 171 173 173 166 157 150 153 164 164 163 169 174 172 171 174 175 178 176 168 163 159 154 147 134 130 137 136 132 123 110 98
213 231 229 229 223 206 176 176 172 156 90 65 38 11 233 136 140 244 45 263 141 131 111 75 64 53 54 77 112 132 137 134 136 135 133 132 131 134 136 139 141 145 148 149 154 151 150 153 153 154 157 159 158 158 160 165 172 169 169 169 167 168 169 171 169 168 169 173 172 164 157 153 159 167 165 163 164 168 173 177 180 183 185 181 175 169 163 159 154 142 137 143 140 136 128 116 106
201 221 224 221 219 194 161 170 123 50 59 29 28 22 347 152 147 150 174 177 145 141 120 103 81 66 80 104 121 135 139 140 142 142 140 139 140 142 145 151 153 153 154 153 156 156 155 157 157 159 161 161 160 160 162 167 172 168 169 169 168 170 170 170 170 169 167 168 168 167 166 164 166 169 170 170 167 165 174 180 178 183 186 183 179 173 164 160 158 150 143 146 146 138 128 124 117
215 225 224 228 218 128 97 94 46 14 2 5 17 18 357 113 137 181 192 162 156 162 138 135 106 88 111 122 131 140 142 145 147 149 144 143 146 148 149 157 160 157 159 157 157 161 162 163 164 166 166 164 163 164 166 169 171 171 169 168 169 170 172 173 173 176 175 169 169 176 177 174 173 172 170 168 168 167 176 182 176 181 185 183 180 174 167 161 158 154 150 150 148 139 133 141 138
220 227 229 226 197 110 130 205 14 3 348 351 3 359 6 59 50 232 196 161 172 175 150 166 153 129 136 135 140 144 147 148 148 151 147 146 148 152 154 158 163 160 162 160 159 167 170 169 170 170 170 168 166 168 171 170 173 173 170 171 173 174 176 180 180 182 184 177 174 182 183 181 179 174 170 170 173 172 178 183 177 179 181 184 181 172 168 163 157 159 159 154 151 149 151 156 148
206 216 236 224 110 221 171 169 340 10 348 337 346 341 5 27 321 261 199 169 179 175 138 166 163 144 144 146 148 149 153 151 148 150 149 150 148 152 159 161 163 160 162 161 163 172 176 174 174 173 172 172 172 175 176 173 175 174 173 176 178 179 180 184 188 187 187 184 182 186 185 181 183 180 175 175 177 174 173 176 177 175 173 180 178 170 170 165 159 165 167 162 161 165 165 159 152
213 218 244 272 225 229 140 112 40 4 327 323 334 337 357 336 267 239 226 188 140 97 71 70 134 140 146 149 150 153 155 152 150 150 147 150 147 149 157 159 159 159 164 166 168 174 178 177 176 177 176 178 182 182 179 177 178 178 179 180 181 187 189 191 193 192 190 188 187 189 184 182 188 189 183 179 180 179 176 177 181 177 173 177 176 176 176 171 170 174 174 174 173 171 166 157 155
229 219 231 243 241 238 163 129 39 337 309 319 335 336 335 298 225 179 241 227 46 39 50 92 118 131 140 143 149 154 155 152 153 154 148 148 148 148 154 157 160 167 170 172 174 175 178 178 176 179 180 184 188 187 182 181 184 184 184 182 185 195 197 197 197 197 195 191 192 192 188 190 194 195 192 188 187 186 183 184 187 184 184 184 182 184 183 181 184 185 183 185 177 169 165 159 156
233 233 217 226 237 239 244 255 272 299 298 313 325 315 302 275 104 113 213 82 47 51 85 106 115 126 134 139 148 151 154 154 153 152 145 149 151 144 151 162 167 175 176 177 181 178 177 177 177 183 186 187 189 191 189 188 188 188 189 186 192 201 201 204 205 202 200 198 199 197 197 200 203 202 199 196 195 194 191 190 191 188 189 190 188 189 187 186 190 191 190 187 177 170 166 162 160
227 240 225 219 229 233 242 252 254 270 284 297 306 293 284 290 348 231 184 107 73 86 107 115 120 128 134 138 146 149 154 154 152 146 140 150 154 143 149 162 170 181 183 182 184 179 175 177 182 186 189 188 189 193 195 197 196 193 193 191 199 205 205 212 211 205 207 208 206 205 207 209 211 212 208 205 203 202 198 195 194 190 189 190 190 191 189 186 189 193 192 186 178 170 168 168 165
212 229 233 222 223 219 224 231 238 252 263 270 272 266 240 74 292 199 162 102 100 123 126 126 128 132 133 135 144 150 153 153 151 148 144 147 154 156 157 162 173 185 188 185 183 178 178 183 186 189 191 192 193 195 198 202 201 199 199 201 205 206 209 215 212 210 211 212 210 210 212 214 216 217 217 213 209 206 201 198 197 195 194 192 192 195 191 185 187 192 192 188 183 176 173 172 170
194 224 233 233 233 223 226 235 240 249 246 250 251 235 149 154 232 187 145 117 130 145 139 137 137 134 132 135 143 148 150 152 149 148 150 149 157 163 164 179 189 186 185 187 184 176 178 184 187 190 193 192 195 198 200 203 204 205 205 208 209 209 215 214 210 212 212 214 214 211 212 214 216 218 218 216 213 209 203 202 201 200 198 194 195 197 192 186 187 191 194 193 189 184 177 175 176
188 220 230 230 238 233 233 235 231 237 228 217 233 217 158 188 230 155 131 143 156 156 151 148 143 135 133 134 137 144 144 146 146 150 155 154 158 163 170 189 194 190 191 190 183 172 179 189 188 189 193 193 195 199 203 208 210 211 211 213 214 212 214 214 215 215 216 223 221 216 217 216 216 216 215 216 217 212 207 207 206 206 204 198 199 197 192 189 189 193 197 197 194 190 181 180 181
208 214 229 212 218 227 223 220 213 219 205 173 216 201 171 193 197 130 129 151 163 165 160 152 146 136 133 131 132 135 137 143 149 153 154 151 154 167 183 193 191 190 189 192 192 190 207 213 196 190 201 205 207 212 211 211 213 217 216 216 219 219 216 219 223 219 220 231 229 221 219 219 220 220 221 220 220 218 212 209 209 213 212 206 203 199 192 188 189 195 199 199 197 197 192 186 184
210 213 239 203 200 214 204 200 197 208 192 166 219 205 174 184 168 140 148 163 167 172 168 157 148 136 130 127 126 125 131 145 148 145 147 150 159 175 193 195 190 184 170 182 192 196 211 214 204 195 203 212 214 219 216 212 219 227 224 218 223 224 221 227 231 225 225 232 233 226 221 221 222 226 229 223 218 221 219 216 214 216 217 212 206 201 195 191 193 198 203 200 197 200 197 190 189
206 202 229 222 210 192 178 182 189 197 168 172 222 225 176 169 154 151 162 173 181 179 172 162 147 136 126 122 122 124 132 142 138 134 139 147 160 179 194 188 179 174 162 174 183 188 194 198 210 209 213 221 222 224 223 222 228 232 229 223 223 224 223 230 235 230 229 234 236 231 230 232 227 225 227 222 215 213 216 221 220 220 220 214 209 204 199 196 196 200 203 201 198 201 199 193 193
204 197 206 215 216 171 156 172 192 194 157 180 216 223 160 154 149 155 161 179 195 187 177 164 143 130 122 120 121 120 127 133 132 135 139 147 158 171 184 177 169 171 168 173 180 188 196 197 206 210 218 226 226 225 226 230 234 233 232 227 224 227 228 230 233 230 230 234 234 232 238 242 235 227 225 223 219 212 214 222 224 225 226 221 214 209 206 204 202 202 203 202 201 203 200 195 193
199 210 205 194 204 178 152 168 191 194 165 179 212 232 149 134 141 150 160 180 190 192 182 165 139 122 120 123 123 120 125 130 136 141 143 150 156 157 166 162 162 169 170 176 181 186 198 203 205 205 212 220 223 225 224 232 237 237 235 230 230 235 232 231 236 235 230 230 230 233 241 242 234 229 225 222 219 215 217 220 220 224 230 229 222 217 214 209 205 203 203 203 204 206 204 197 191
187 210 213 188 199 194 157 158 171 188 191 183 206 234 130 114 130 145 163 183 188 196 185 169 143 118 118 121 121 120 119 123 135 144 145 147 146 146 145 140 148 153 156 169 177 184 191 202 210 208 212 222 225 225 228 235 242 246 243 240 242 244 238 238 245 245 236 232 230 232 238 238 232 226 222 222 224 224 223 222 220 219 225 227 222 223 221 213 206 203 201 203 203 207 209 200 192
186 196 203 188 195 203 177 156 160 180 197 190 194 209 138 116 116 129 158 183 195 197 183 172 147 122 119 118 117 116 109 109 122 134 143 143 140 144 139 130 138 141 146 161 172 183 190 201 215 209 212 225 231 234 241 248 253 256 253 248 249 254 253 250 249 248 240 236 235 234 236 235 230 221 219 224 228 230 230 228 224 218 219 221 219 222 226 215 203 201 202 202 200 205 209 200 192
187 186 195 190 187 204 182 140 149 177 192 189 187 200 178 131 107 110 142 168 199 196 180 178 152 132 123 116 117 114 108 105 103 108 119 130 136 142 141 133 135 139 144 159 171 184 192 196 201 197 202 214 234 243 246 253 260 259 256 255 257 262 264 259 252 247 243 245 248 244 238 233 230 224 218 222 229 233 233 229 224 219 216 215 215 218 223 216 200 200 203 198 193 198 204 197 188
185 186 197 195 186 194 174 134 137 174 197 186 183 200 187 113 92 101 120 162 198 199 189 191 166 143 126 124 125 114 110 114 107 95 98 114 130 135 139 137 133 133 139 158 177 192 197 196 194 189 211 234 243 247 237 235 247 249 249 255 260 265 267 262 256 253 251 255 258 252 244 237 233 230 221 219 228 234 233 227 221 218 214 211 214 215 218 218 203 197 201 197 192 194 195 191 186
189 193 197 195 195 185 165 146 133 166 216 186 182 198 164 90 84 101 128 183 187 197 206 208 187 159 138 135 126 115 117 122 116 106 107 116 124 130 134 132 127 123 127 145 171 194 202 204 200 184 258 270 255 256 249 244 244 241 243 253 262 272 273 264 257 258 259 260 258 252 245 241 236 233 225 218 221 226 228 224 218 217 214 213 213 212 215 217 207 198 200 200 198 199 196 189 185
196 201 198 197 194 163 143 141 131 168 232 180 182 198 133 98 91 90 115 168 117 48 14 327 227 194 166 143 125 127 136 130 122 121 121 119 120 127 126 122 118 113 115 122 141 192 213 210 210 191 272 270 259 256 257 259 252 245 253 259 266 279 282 273 265 265 266 264 260 252 247 246 241 234 227 219 216 219 222 220 218 217 215 214 211 207 210 212 206 201 200 195 192 199 201 193 189
204 203 199 198 187 169 158 158 139 147 264 185 181 192 136 123 120 97 99 100 78 59 64 59 47 197 172 133 127 144 147 138 131 127 128 132 129 128 125 119 111 103 103 101 99 59 283 287 338 340 291 279 267 259 262 265 256 255 264 268 273 277 278 279 277 273 270 267 265 259 257 254 247 240 234 227 221 219 221 220 221 219 215 215 210 202 204 207 203 202 201 193 190 193 199 198 197
206 205 207 197 183 189 171 151 147 135 179 191 178 183 165 161 156 128 116 111 104 89 87 81 77 101 144 131 129 147 150 148 142 134 140 149 133 122 118 110 101 92 84 73 56 11 349 350 353 349 280 268 264 260 263 264 257 258 265 270 271 267 267 268 269 271 268 265 265 263 264 262 256 250 243 238 230 224 226 225 223 221 215 214 207 198 201 204 199 201 200 195 192 191 191 197 201
198 206 221 208 180 188 149 142 164 173 182 190 192 199 176 168 167 140 135 136 124 107 103 95 84 101 143 138 120 119 120 114 127 132 137 141 129 121 113 95 85 79 67 56 40 9 350 349 351 340 270 254 256 255 255 257 258 253 249 251 249 252 262 260 257 265 265 261 261 260 264 265 259 254 247 243 238 230 226 224 221 220 215 211 204 198 201 201 197 200 201 199 197 191 184 186 197
197 193 209 219 185 188 164 160 186 199 180 177 200 221 176 165 171 143 142 144 129 116 103 91 80 83 107 116 112 122 117 105 114 124 129 132 125 122 109 83 67 60 55 46 35 14 359 357 349 334 290 263 260 258 255 257 262 255 242 245 252 256 262 261 256 263 263 260 258 253 255 258 255 252 248 245 242 235 229 225 223 220 215 211 204 198 200 202 201 202 203 203 203 199 191 190 197
195 172 189 205 199 193 182 185 203 204 139 151 198 229 218 181 168 143 153 151 129 117 100 88 81 75 75 79 82 99 106 108 119 124 119 101 76 65 66 66 58 51 47 39 28 12 4 3 353 335 307 291 279 268 262 257 258 261 254 252 259 261 261 264 261 257 254 252 253 250 248 251 251 249 247 246 244 239 235 233 228 222 216 211 206 201 200 201 202 202 203 204 204 206 204 202 204
179 159 185 201 205 210 202 200 209 203 178 182 194 214 226 184 150 142 166 161 130 115 102 91 89 83 77 71 66 70 78 83 86 84 81 70 57 50 50 53 53 49 41 29 15 2 356 354 352 336 314 313 308 292 284 272 263 265 266 262 263 264 263 266 265 261 255 247 247 248 248 247 246 247 247 246 246 243 242 239 231 225 218 212 209 203 199 198 200 200 201 203 202 203 206 206 208
152 157 187 196 205 222 221 218 211 188 209 214 187 192 215 179 148 161 178 168 135 114 102 94 98 93 84 78 71 73 76 77 72 66 66 63 56 51 49 47 46 45 36 27 18 9 2 352 346 336 320 319 316 306 296 286 275 270 271 269 268 270 269 264 261 263 261 255 254 253 250 248 244 246 248 247 248 244 241 236 228 224 220 213 211 206 199 197 200 200 200 202 201 200 203 207 212
150 169 191 191 201 215 219 230 226 195 211 219 186 187 213 196 160 166 163 150 122 111 106 100 104 97 87 81 76 78 81 80 75 70 67 62 56 52 50 48 45 43 36 28 24 18 16 10 353 339 327 318 309 307 299 290 285 276 276 275 269 271 275 273 269 269 269 265 264 261 257 258 256 250 248 249 249 244 238 233 228 226 220 212 210 208 202 196 198 201 200 202 204 206 208 210 215
180 189 193 191 195 201 205 206 216 214 210 203 177 183 214 214 165 149 128 119 103 102 108 108 109 101 92 88 84 83 83 82 79 73 67 62 58 54 50 48 44 41 36 30 26 22 20 16 2 349 340 329 312 303 295 291 290 286 285 279 269 268 270 270 267 267 269 268 266 263 259 267 270 257 245 244 247 246 240 232 228 228 222 213 208 204 201 197 198 201 200 201 203 208 211 210 215
203 199 190 193 188 188 204 196 198 213 197 166 163 179 207 185 125 131 124 114 104 99 103 109 111 108 104 97 89 84 78 77 74 68 64 58 54 49 45 43 39 37 34 30 28 25 20 13 5 359 350 341 326 311 300 295 292 288 282 274 268 266 263 260 255 254 256 255 254 251 251 263 270 260 245 239 241 246 244 233 225 224 223 221 215 207 201 198 199 200 199 199 198 202 206 206 214
203 201 190 194 188 184 199 194 193 203 176 137 160 180 186 131 118 128 119 110 109 102 100 106 110 108 105 97 89 83 76 70 65 62 59 54 50 48 44 41 39 37 35 32 30 25 22 18 12 8 357 346 337 324 313 303 296 289 281 273 269 264 257 253 250 248 246 244 242 240 243 253 259 257 250 245 243 246 246 234 224 220 220 218 213 207 200 193 197 200 197 195 194 198 203 206 214
202 206 201 202 200 191 196 198 197 196 170 136 161 184 179 152 129 116 112 113 113 109 108 109 105 103 100 92 86 81 74 67 63 61 59 54 51 49 47 44 41 39 36 33 28 21 18 19 15 9 357 347 340 330 320 310 302 296 287 280 276 268 260 253 247 241 239 239 239 239 241 244 245 247 249 250 251 250 246 235 224 217 214 206 198 199 198 191 194 200 197 196 200 205 208 209 213
199 209 210 209 210 198 187 207 206 185 159 144 158 159 103 121 121 113 116 117 115 116 117 113 104 101 98 90 85 80 72 66 63 63 60 57 54 51 49 46 41 39 38 33 26 19 15 12 7 0 350 341 338 334 328 319 311 306 298 288 281 273 265 259 252 243 237 235 236 239 242 240 234 235 241 243 242 241 242 236 223 211 206 201 198 200 198 193 194 196 197 200 205 211 213 209 210
183 206 208 207 233 213 172 120 65 149 167 156 154 135 112 127 139 140 137 129 129 129 119 114 107 103 100 91 87 82 74 70 67 66 64 59 57 55 51 45 39 36 33 30 27 21 14 5 357 351 346 341 339 337 333 327 321 316 309 299 289 277 268 262 257 252 244 238 236 237 238 232 222 222 228 230 227 220 219 225 218 204 200 202 202 198 191 188 190 192 197 201 204 208 209 205 204
182 200 197 178 270 235 189 178 164 185 188 167 172 171 160 167 163 155 153 143 139 133 121 118 112 105 101 94 90 85 79 78 74 70 65 59 56 54 51 46 41 36 29 25 23 17 9 360 349 343 342 341 339 337 334 331 326 318 313 311 303 290 278 270 266 262 254 246 240 236 234 224 212 211 215 224 226 209 194 203 209 201 200 203 200 193 185 183 185 189 195 200 202 200 199 201 202
216 205 188 185 205 196 197 201 188 193 191 159 173 180 178 184 171 165 169 157 144 136 129 126 118 111 107 100 97 90 82 79 73 68 64 60 56 50 48 43 38 35 28 21 16 9 3 353 344 341 339 336 334 334 332 330 326 317 312 313 311 303 291 281 277 274 266 258 247 240 237 224 211 210 212 217 223 206 189 189 199 201 201 199 195 191 186 182 182 188 190 190 194 194 192 198 199
226 211 189 200 216 196 197 204 197 200 192 163 173 184 189 185 167 170 173 161 150 145 137 130 120 115 111 101 96 86 77 72 68 68 65 60 56 49 45 38 31 29 24 18 14 8 2 355 349 345 340 337 335 332 331 328 324 319 314 312 311 308 302 291 282 276 271 266 255 247 242 227 214 213 211 207 212 208 191 183 191 201 201 196 191 191 191 186 183 188 187 182 187 190 188 193 195
204 204 188 192 206 202 199 201 214 218 202 180 180 186 178 139 141 164 167 158 151 145 135 128 120 116 109 98 95 87 80 76 70 69 67 60 54 45 39 35 30 26 21 18 16 11 7 2 357 351 345 343 342 338 335 330 324 322 319 314 311 310 309 303 291 280 272 267 259 250 239 224 217 213 211 204 195 202 195 182 191 203 203 197 191 189 190 190 187 188 185 176 179 186 186 191 195
191 198 196 192 192 195 192 189 204 223 214 195 190 185 156 92 133 158 158 154 146 138 131 125 121 119 114 105 100 94 87 81 73 69 64 56 49 41 38 37 32 25 22 20 17 13 10 7 1 355 351 350 349 345 342 337 329 326 323 319 315 310 309 308 300 291 280 268 263 255 235 221 218 213 209 198 180 188 204 198 201 209 209 203 198 193 190 189 186 183 179 175 177 184 186 192 196